Theta_e
317 317 317 318 317 317 315 313 310 306 305 304 304 303 302 303 303 302 302 302 302 302 302 301 301 302 303 303 303 303 302 301 301 301 301 303 306 312 320 322 324 324 322 322 322 321 320 321 322 321 320 319 317 316 316 316 315 315 314 314 314 314 313 312 312 312 312 311 311 311 311 311 311 312 311 311 311 311 311 311 311 310 310 310 310
317 316 317 318 317 316 314 312 310 306 304 303 303 303 303 302 302 302 302 301 301 301 301 301 300 300 301 301 300 299 299 299 299 299 299 299 301 304 313 320 323 323 322 322 322 321 320 321 319 319 318 318 317 316 316 315 315 314 314 314 313 313 312 312 312 312 311 311 311 311 311 311 311 311 311 310 310 310 310 310 310 310 310 310 310
318 317 316 316 316 315 314 312 310 306 304 303 302 303 302 303 302 302 302 301 300 300 300 300 299 298 299 299 298 298 297 297 298 297 297 297 297 298 302 312 320 322 322 321 319 319 319 319 319 319 319 318 317 317 316 315 314 314 313 313 312 312 312 311 311 311 311 310 310 310 310 310 309 310 310 310 310 309 309 309 309 309 309 309 309
320 319 318 317 317 316 314 312 310 307 304 302 301 301 302 301 301 301 301 300 299 299 299 299 297 297 297 298 297 297 296 296 296 295 296 296 294 295 297 301 312 319 321 321 319 319 320 319 319 318 318 318 318 317 316 315 314 313 313 312 312 311 312 311 310 310 310 310 309 309 309 309 309 309 309 309 309 309 309 309 309 308 308 308 308
321 320 318 318 317 316 315 314 312 309 305 303 301 301 301 301 300 300 299 299 299 298 299 299 298 296 295 295 295 295 295 295 294 294 294 294 293 292 294 296 297 308 314 319 320 319 319 319 319 318 318 318 318 318 316 315 314 313 313 312 312 311 311 310 310 310 309 309 309 309 308 308 308 308 308 308 308 308 308 308 308 308 308 308 308
321 320 319 318 317 317 316 315 313 311 306 304 302 301 301 302 300 300 301 301 299 298 298 297 295 293 293 293 293 292 293 293 293 292 293 292 291 291 292 293 293 295 298 310 317 319 319 319 319 319 318 318 317 316 316 314 313 313 313 312 311 311 310 310 309 309 308 308 308 308 307 307 308 308 308 308 308 307 307 307 307 308 308 308 308
322 321 319 318 316 316 316 315 314 312 307 304 302 302 302 302 301 301 301 301 300 299 299 296 294 292 291 292 291 291 291 291 291 292 292 292 292 292 292 292 293 292 293 293 301 308 317 319 319 318 317 317 316 316 316 314 314 313 312 312 311 311 310 309 309 308 308 308 307 307 307 307 307 307 307 307 307 307 307 306 307 307 307 307 307
322 322 320 318 316 315 315 315 314 313 307 304 302 300 301 302 302 302 301 299 298 296 296 294 293 291 290 290 291 292 291 291 292 292 291 291 291 291 291 291 292 292 294 290 292 298 310 316 317 316 316 317 316 317 316 316 314 314 312 312 311 310 309 309 308 307 308 307 307 307 307 307 307 306 306 306 306 306 306 306 306 307 306 307 306
323 322 320 319 317 315 315 315 314 313 308 306 303 301 301 301 300 301 302 299 298 296 294 293 292 291 290 290 291 291 291 291 291 290 291 292 291 290 290 290 292 291 286 287 289 290 301 310 315 317 316 315 316 315 316 316 315 314 312 311 310 309 309 308 307 307 306 307 306 307 307 306 306 306 306 306 306 306 305 306 306 305 306 306 306
324 322 321 320 319 317 315 314 314 314 309 306 304 302 301 301 300 300 301 300 299 297 294 291 292 291 290 290 290 290 290 290 290 292 290 291 290 289 287 287 287 286 285 286 286 288 288 297 306 309 310 315 315 316 315 315 314 313 312 311 309 309 307 307 306 306 306 306 306 306 306 306 306 306 306 305 305 305 305 305 305 305 305 305 305
325 323 321 320 319 318 315 314 313 313 310 306 304 301 300 300 300 299 300 301 300 297 294 292 292 291 290 289 289 289 289 290 289 289 289 289 292 291 288 286 286 285 285 285 285 286 287 287 288 291 301 312 315 314 314 315 313 313 313 311 310 309 308 306 306 306 305 305 306 306 305 305 305 305 304 305 305 304 304 305 305 305 305 305 305
327 325 322 321 319 318 316 314 313 314 311 307 304 302 300 299 299 298 297 296 296 294 293 292 291 290 290 289 288 289 290 290 288 288 288 288 287 288 287 287 285 286 286 285 285 286 287 286 287 287 291 303 310 312 314 315 314 313 312 312 310 309 307 306 306 306 305 305 305 305 305 304 305 305 304 304 304 304 304 305 304 304 304 304 304
327 327 324 319 320 320 317 315 314 313 312 309 307 304 303 301 299 298 297 296 294 293 293 293 292 292 291 290 289 289 290 289 287 287 287 286 286 287 287 286 285 286 285 285 285 285 286 285 285 285 286 287 296 306 309 312 314 312 312 312 310 310 308 307 306 305 305 304 305 305 304 304 303 304 304 304 304 304 304 304 304 304 304 304 304
327 328 326 323 321 320 319 316 314 313 313 312 308 303 301 301 298 297 298 297 294 293 292 295 293 294 290 289 291 289 289 288 287 287 286 285 285 285 286 285 285 286 285 285 285 285 284 284 284 284 284 285 286 288 292 294 306 313 312 309 309 309 308 307 307 306 305 303 304 304 304 304 303 303 304 303 304 304 304 304 304 304 303 303 304
328 326 328 326 324 322 320 318 316 314 312 310 308 304 302 300 298 298 295 296 294 294 293 298 295 291 292 291 289 288 291 290 287 286 286 286 286 286 287 285 285 285 285 285 285 285 284 282 283 283 283 283 284 286 289 293 296 305 309 311 312 311 309 308 307 306 305 304 304 303 304 303 303 303 303 303 303 303 303 303 304 303 303 303 303
327 327 326 323 323 322 321 320 317 314 313 311 308 305 303 301 299 299 297 293 292 292 294 296 294 293 291 291 287 288 286 291 289 286 285 286 286 286 286 285 284 283 284 284 285 284 283 282 281 281 282 282 283 284 287 287 296 298 299 302 307 310 309 309 307 306 305 305 304 303 304 303 303 303 303 302 303 303 303 303 303 303 302 302 303
325 326 325 327 325 323 322 321 319 316 314 312 309 307 304 302 300 299 297 296 292 292 292 294 294 299 295 287 286 285 288 286 285 287 285 286 286 285 285 285 283 283 284 284 283 283 283 282 281 280 281 281 281 283 284 286 288 290 290 292 298 303 307 306 307 306 306 305 304 304 303 303 303 302 302 302 302 303 302 302 303 302 302 302 303
322 323 324 324 327 325 323 321 319 317 315 314 312 309 305 303 301 300 298 299 297 293 291 293 294 294 294 296 294 295 289 286 289 290 284 285 285 285 285 284 282 283 284 284 283 283 283 283 281 281 282 282 281 281 282 283 286 283 283 291 302 301 302 305 306 306 306 305 304 304 304 303 303 303 302 302 302 302 302 302 302 301 301 302 303
320 321 322 323 323 323 323 323 321 319 315 315 313 310 307 305 303 301 300 300 298 294 292 291 292 292 293 293 291 289 290 286 287 285 286 285 283 284 284 283 282 282 283 284 284 283 283 283 283 283 283 283 282 282 281 283 290 287 295 300 302 300 300 301 302 304 305 305 304 304 303 303 303 303 303 302 302 301 301 302 302 302 302 302 303
318 319 321 321 321 324 323 321 320 319 315 315 314 312 310 307 304 303 302 300 299 298 296 294 291 292 292 291 290 290 290 289 289 293 291 286 285 283 283 284 283 283 283 284 284 283 283 283 283 282 281 282 283 281 281 282 283 285 292 300 302 301 299 300 299 299 300 302 303 302 303 303 302 303 302 302 302 301 301 301 301 301 302 302 302
314 316 317 318 317 319 321 322 321 320 315 317 316 314 311 308 304 302 302 301 300 300 300 295 293 294 292 291 291 290 289 288 287 289 290 291 290 283 283 283 284 285 284 285 286 286 285 284 284 283 283 282 281 281 280 281 282 282 291 298 301 303 301 300 299 298 297 297 298 299 299 301 301 302 303 302 302 302 301 301 301 301 302 302 302
311 312 313 314 315 315 316 318 319 318 313 315 315 314 312 310 307 304 303 302 301 300 300 298 295 296 295 294 291 289 288 286 285 285 287 290 294 286 284 282 281 283 285 285 285 285 284 284 283 283 282 282 282 282 281 281 281 283 287 296 299 302 302 299 298 298 297 297 296 296 297 298 299 301 302 302 302 302 302 302 301 301 302 302 302
309 309 310 311 312 312 314 315 316 314 313 314 315 315 313 311 309 306 304 303 302 300 299 299 297 296 296 296 294 292 291 289 288 287 288 287 286 288 285 285 285 285 285 286 285 285 284 283 283 283 283 282 282 282 282 281 283 285 288 293 297 299 300 300 300 299 298 297 297 296 296 297 297 298 300 301 301 302 302 302 301 301 301 302 302
305 307 308 308 309 311 310 312 312 313 314 313 313 314 314 312 310 307 305 304 303 301 300 300 298 296 297 297 296 295 294 294 294 292 290 292 292 292 289 286 285 285 284 284 285 284 283 283 283 283 283 282 282 282 282 282 282 287 287 291 295 298 300 302 302 300 299 297 297 297 296 296 296 296 297 299 300 301 302 302 301 301 301 302 302
302 304 306 307 308 309 310 310 311 311 311 311 311 312 311 310 309 307 306 304 303 302 300 300 300 298 297 298 297 296 295 296 297 294 292 294 293 292 288 286 286 285 284 282 282 283 284 283 283 283 283 283 283 282 282 282 281 286 288 287 293 295 297 299 301 299 297 296 296 296 297 296 296 296 297 298 299 300 301 301 301 301 301 301 301
301 301 304 304 304 306 308 310 311 312 311 311 310 310 310 310 308 307 305 305 305 303 302 301 301 300 299 298 297 296 296 296 296 296 293 291 290 291 288 283 284 284 283 282 283 281 282 283 283 283 283 283 282 282 282 282 281 286 289 283 288 293 295 296 296 296 296 297 297 296 295 294 295 296 297 298 298 299 300 301 301 300 300 301 301
301 301 298 300 300 301 302 305 307 308 310 310 309 309 309 309 308 307 306 306 304 303 302 301 300 300 299 298 297 297 296 296 296 296 295 293 294 292 290 286 283 282 282 282 282 282 284 283 283 283 283 282 282 282 282 282 283 286 288 284 282 290 293 295 296 297 296 295 294 293 293 294 294 295 296 296 297 298 300 300 300 300 300 299 298
297 297 298 299 299 300 300 301 302 304 305 307 308 308 308 308 307 306 306 305 304 303 302 302 301 301 300 300 298 297 297 297 297 296 296 295 294 294 292 292 291 288 282 280 280 280 284 282 282 283 283 283 283 283 283 283 282 286 287 284 281 284 292 294 295 295 294 293 293 293 293 293 293 294 295 295 295 296 296 296 296 296 296 296 296
298 296 297 297 298 299 299 299 300 301 303 304 305 307 308 307 307 306 305 305 303 303 302 302 301 301 300 299 299 298 297 297 297 296 296 294 293 293 292 292 294 293 288 281 282 281 282 283 281 282 283 283 283 283 282 282 283 285 284 284 282 281 288 293 295 295 295 294 293 293 293 293 293 294 294 294 294 294 295 295 296 296 296 296 296
297 296 297 297 297 296 298 299 299 300 301 302 304 306 306 306 306 306 306 305 304 303 302 302 301 301 300 299 298 297 296 295 295 295 293 293 291 291 292 292 294 293 293 290 290 284 283 282 283 282 282 283 283 282 282 282 285 285 283 283 283 282 287 291 293 294 293 293 292 292 293 293 293 293 293 293 293 294 295 295 295 295 295 295 296
295 295 295 295 295 295 296 297 298 298 299 300 301 302 304 304 305 305 304 304 303 302 302 301 301 299 298 297 297 297 296 296 294 294 293 292 292 291 291 290 290 292 293 293 291 288 285 282 282 284 283 283 283 283 282 282 284 285 282 282 282 285 287 288 291 292 292 292 292 292 292 292 292 292 293 293 293 293 294 294 294 294 294 295 295
295 295 295 294 294 295 295 296 296 297 297 298 299 300 301 303 303 303 302 302 301 300 299 298 299 298 297 297 297 296 297 296 294 294 293 292 292 291 290 289 289 289 290 290 289 291 282 283 283 283 283 282 283 282 282 282 283 285 282 282 282 286 285 284 289 290 290 290 291 291 292 292 292 292 292 291 292 292 293 293 293 293 294 294 294
292 294 294 295 295 295 295 295 295 296 296 296 297 299 300 300 301 301 299 298 299 299 298 298 297 297 297 297 297 297 297 295 295 294 293 292 291 290 290 289 288 288 288 288 288 289 282 280 283 282 283 283 282 283 282 281 281 283 283 282 282 283 283 282 283 287 288 289 289 290 291 292 291 291 291 291 291 292 292 292 293 293 292 293 292
291 294 294 294 293 294 294 295 295 295 295 297 295 296 297 297 297 299 299 297 297 297 297 297 297 297 296 296 296 296 296 295 294 293 292 291 290 289 289 288 288 288 288 287 288 288 289 280 280 282 281 283 281 283 282 281 281 282 281 281 282 282 282 282 281 282 286 288 289 290 290 290 290 290 291 291 291 291 292 292 291 291 291 291 290
289 292 293 292 293 293 293 293 294 294 294 294 293 293 294 296 296 297 298 297 297 297 297 297 297 297 296 295 296 296 296 294 294 293 292 291 290 289 289 289 288 289 289 288 288 287 287 282 280 280 280 282 281 281 282 282 282 282 281 281 281 282 282 282 281 281 285 287 288 289 290 290 290 290 290 290 290 290 289 289 289 289 289 289 288
290 290 290 292 291 291 292 292 292 293 293 292 292 292 294 295 296 296 296 296 296 297 297 297 297 296 296 295 295 295 295 294 293 293 292 291 290 289 289 289 288 288 289 287 287 288 287 281 281 280 281 281 280 282 282 282 281 281 281 281 282 281 281 281 281 281 283 287 288 289 289 290 289 289 289 289 288 288 288 288 288 288 287 286 286
290 290 290 289 290 291 292 292 293 293 293 293 292 292 293 294 295 295 296 296 296 296 296 297 295 297 296 296 296 295 294 293 293 292 292 290 290 290 289 289 288 288 288 287 286 286 284 283 281 280 281 280 280 281 282 280 280 279 280 280 280 280 280 281 281 281 283 285 287 287 288 288 288 288 287 287 286 286 287 287 286 286 285 284 284
290 289 290 289 289 291 291 292 293 293 292 292 292 293 293 293 293 294 294 295 295 296 296 296 296 296 296 296 296 295 295 294 293 293 292 291 290 289 289 289 288 288 287 286 286 285 285 283 281 279 280 279 279 280 281 281 279 278 278 278 278 279 279 278 279 279 280 281 281 283 285 285 285 285 286 286 286 286 285 285 284 284 283 283 283
289 289 289 290 289 290 291 292 292 292 293 292 292 292 293 293 293 293 293 294 294 294 295 295 296 296 296 296 296 295 295 295 294 293 293 291 291 289 289 289 289 287 286 286 285 284 284 282 281 280 280 280 280 278 279 281 281 280 278 277 276 278 278 278 278 279 279 279 281 282 281 281 283 284 285 285 285 284 284 284 283 282 282 281 282
288 288 289 290 290 289 290 291 291 291 291 292 292 292 292 292 292 292 292 293 294 294 294 294 294 295 295 295 295 296 295 295 294 294 293 292 291 290 290 289 288 287 286 285 284 284 283 282 281 279 280 279 278 278 278 279 279 279 280 279 278 277 275 277 278 277 278 278 277 278 282 283 283 283 284 284 283 283 283 282 281 281 280 281 282
287 288 288 289 289 290 290 290 290 290 291 292 292 292 292 292 292 292 292 292 292 293 293 294 294 294 294 294 295 295 294 291 292 292 293 293 292 290 289 289 288 287 286 285 283 283 283 282 281 280 279 279 278 277 277 278 279 280 279 280 280 279 277 276 277 278 278 277 277 277 276 277 277 277 276 276 278 281 280 281 280 280 280 281 282
287 287 287 288 288 289 290 290 290 290 291 292 291 292 293 293 292 292 292 292 292 292 293 293 293 293 293 294 294 290 290 290 290 291 292 292 292 292 291 289 288 286 285 284 283 283 283 282 281 280 279 278 278 279 279 280 282 280 278 278 278 277 277 277 277 277 278 278 276 275 276 276 277 277 276 276 276 279 278 277 277 279 280 281 282
287 287 286 287 288 288 289 289 290 290 291 292 292 294 295 295 293 292 292 292 292 292 292 292 292 292 292 292 293 291 289 289 289 290 291 291 291 291 291 290 289 287 286 284 284 283 283 282 282 280 280 279 279 280 280 280 280 279 278 278 278 276 275 275 274 277 277 277 276 276 276 276 277 276 276 275 275 275 276 276 280 280 281 281 281
286 285 286 287 287 287 288 288 289 290 291 291 293 294 294 295 294 292 292 292 292 292 293 293 293 293 292 292 292 292 292 291 291 290 290 290 290 291 290 290 289 289 289 287 285 283 283 282 281 280 281 280 280 280 280 279 278 278 278 278 277 276 276 275 276 276 277 277 276 275 275 277 276 276 275 275 275 275 275 279 281 280 280 281 281
285 285 286 286 287 287 287 287 288 289 289 291 293 294 294 294 294 293 292 292 291 291 292 292 292 292 292 291 292 292 292 288 288 289 289 288 288 289 289 289 288 289 289 290 289 286 285 284 282 281 282 282 280 280 281 280 280 278 278 277 277 277 277 277 277 276 275 277 277 275 274 276 275 275 274 275 275 274 276 280 280 279 280 280 280
286 286 286 286 287 286 287 287 288 288 289 290 293 293 293 294 294 294 292 291 291 291 292 292 292 292 291 291 291 291 291 289 288 288 287 287 287 286 287 287 286 286 287 288 288 287 286 285 284 282 283 284 282 281 282 282 279 278 277 276 277 277 277 277 278 278 277 278 277 275 272 274 274 275 274 275 274 274 273 278 279 279 279 279 279
286 287 287 287 287 287 287 287 287 288 289 291 292 292 293 293 294 294 292 291 291 291 291 292 292 292 292 291 291 291 290 289 288 287 286 286 286 286 286 285 285 285 285 285 285 285 285 285 285 285 284 284 285 283 282 282 281 281 280 279 278 278 278 277 277 277 276 277 278 276 272 272 274 274 274 274 273 274 272 277 279 278 278 279 278
286 285 286 286 286 287 287 287 287 287 289 291 291 292 292 293 294 291 290 290 290 290 290 291 291 291 291 291 290 290 289 288 287 288 287 286 285 285 285 285 284 284 284 285 287 286 285 285 286 286 285 285 285 283 282 282 281 281 280 279 278 277 276 275 274 274 274 277 277 276 271 270 273 273 273 272 272 272 271 269 276 277 278 278 277
285 286 286 286 286 286 287 287 286 287 288 289 291 291 292 293 292 290 289 289 289 289 290 290 291 290 290 290 289 289 288 288 288 289 289 287 285 285 284 283 283 282 282 284 286 286 287 287 287 287 287 287 287 286 286 285 282 281 278 276 275 276 275 273 273 272 273 274 275 276 272 270 271 272 269 269 270 270 270 269 268 276 278 277 275
286 287 286 286 287 286 286 286 287 287 287 288 290 291 291 292 291 289 288 288 288 288 288 289 289 290 289 288 288 288 288 287 288 289 289 287 284 284 283 282 281 281 281 283 283 284 286 286 286 286 286 287 287 287 286 286 284 282 278 276 276 276 275 275 274 273 272 272 274 275 271 268 269 268 266 264 266 265 267 268 268 272 275 273 274
285 286 286 286 286 287 286 286 286 286 287 287 289 290 291 291 290 288 288 288 287 288 288 288 289 289 289 287 287 287 287 287 289 289 289 287 284 284 283 282 280 280 281 282 281 281 282 282 283 284 284 285 285 284 284 285 284 282 281 279 277 277 276 276 274 271 270 271 273 276 271 267 269 266 267 262 262 263 264 265 268 266 267 267 268
Wind_Speed
6 5 4 5 4 4 4 5 5 5 5 5 5 6 5 5 5 5 5 5 4 4 4 4 3 3 4 5 5 6 5 4 4 5 4 4 4 2 9 9 9 12 13 13 13 12 11 13 15 14 13 13 12 12 12 13 13 13 13 13 13 13 13 12 13 13 13 13 13 13 13 13 14 14 14 14 14 14 14 14 14 14 14 14 15
6 5 6 6 5 4 4 4 5 5 5 6 5 6 6 5 5 5 6 5 5 4 4 5 4 3 3 4 4 4 4 5 4 4 3 3 4 5 6 7 12 14 15 14 13 12 12 13 11 11 11 11 12 12 12 12 12 13 13 12 12 13 13 12 13 13 12 12 12 12 12 12 12 12 13 13 13 13 12 13 13 13 13 13 14
6 6 5 5 5 5 5 4 5 5 5 5 5 5 5 6 6 6 6 5 5 4 5 5 4 3 2 4 4 3 4 4 5 4 3 3 3 3 4 7 6 12 13 13 12 12 10 12 12 12 12 12 12 11 11 11 12 12 12 12 12 12 13 12 11 12 12 11 11 11 10 11 11 11 11 11 11 11 12 12 12 12 12 12 13
7 6 7 6 6 6 5 6 6 5 5 5 6 5 5 5 4 4 4 5 5 4 3 5 5 4 3 3 3 4 3 2 4 4 3 3 3 3 3 3 4 8 9 11 13 13 12 12 12 13 12 13 12 12 11 11 11 11 11 11 11 11 11 11 11 10 10 10 10 10 10 10 9 9 10 10 9 10 10 10 11 11 11 11 12
7 7 7 7 6 6 6 6 5 5 5 5 6 5 5 6 5 4 5 5 5 4 3 2 5 4 4 3 3 3 2 2 3 3 3 3 3 3 3 3 3 6 4 9 9 13 13 13 14 13 13 14 13 13 12 11 11 11 11 11 10 10 9 9 10 10 9 9 9 9 9 8 8 8 8 8 8 9 9 9 10 10 10 10 11
7 8 7 6 6 7 7 6 5 6 6 6 6 5 6 6 7 6 5 6 5 5 5 5 3 3 3 2 2 2 2 2 2 4 3 3 2 2 3 3 3 3 3 3 7 12 14 14 14 14 14 13 12 14 12 11 10 10 10 10 9 9 9 9 9 9 8 8 8 7 7 7 7 7 7 8 8 8 8 8 9 9 9 10 10
8 8 9 9 7 7 8 7 6 6 6 7 7 6 6 7 7 8 6 5 4 5 5 6 5 4 3 3 2 2 2 2 1 2 3 3 3 3 2 2 3 3 3 2 6 5 6 14 15 16 12 12 13 13 12 10 10 10 10 10 9 9 9 9 8 8 8 7 7 6 6 6 6 6 6 7 7 7 7 7 9 9 10 9 10
10 9 7 8 9 9 8 7 9 8 6 5 5 6 6 6 6 7 9 6 5 3 2 5 5 5 3 3 2 2 1 1 1 1 1 2 3 3 2 3 3 3 3 3 3 3 8 3 12 12 13 14 12 14 13 12 12 11 10 10 9 9 8 8 7 7 7 6 6 5 5 5 5 5 5 6 6 7 7 7 9 9 9 10 10
10 9 10 11 10 10 8 7 5 7 7 6 6 5 5 5 4 3 4 8 8 6 3 2 4 5 5 4 3 2 2 2 3 2 1 2 2 3 3 3 3 3 3 3 3 3 5 8 4 6 11 11 14 13 13 14 13 12 11 10 9 8 8 8 7 6 6 6 5 5 4 4 5 5 5 6 6 6 6 6 6 7 8 9 10
8 9 8 7 6 7 9 13 12 11 10 10 10 8 7 8 8 4 3 7 7 9 7 3 2 2 4 4 3 4 3 3 3 3 3 1 1 2 2 1 1 1 2 2 2 2 2 5 5 7 4 12 14 14 15 15 15 13 12 11 10 8 7 8 7 6 5 5 4 4 3 3 4 4 4 4 5 5 6 6 6 7 8 9 10
13 11 7 6 8 8 7 8 8 8 7 8 8 8 7 8 10 9 5 5 7 7 8 6 4 3 3 4 3 3 2 1 2 3 2 2 1 1 1 1 1 1 1 1 2 2 2 2 2 3 4 6 6 15 16 16 14 14 13 13 12 10 9 8 6 6 5 5 4 3 3 3 3 3 3 3 4 4 5 5 6 7 8 9 10
11 13 14 11 7 4 3 4 7 8 8 7 8 9 11 10 8 10 8 5 4 5 6 7 5 4 3 3 3 3 2 1 1 1 2 2 2 1 2 1 1 1 1 1 2 2 2 2 2 2 2 3 6 7 7 5 8 16 15 14 11 11 10 9 8 7 5 5 4 3 2 2 2 1 2 2 3 3 4 5 6 7 8 9 10
6 6 8 10 10 9 8 6 7 8 10 12 12 11 9 8 6 5 10 8 4 5 7 8 9 4 3 2 2 2 1 2 3 3 3 3 2 3 1 1 2 2 0 0 1 2 2 3 1 1 1 2 4 6 6 6 7 7 17 17 14 14 12 10 9 7 5 4 3 3 2 1 1 1 2 1 3 3 4 5 6 7 8 9 10
13 13 10 8 7 8 10 11 10 10 10 9 10 9 9 9 9 7 5 9 7 8 8 9 4 9 7 4 2 2 2 2 3 6 4 2 3 4 3 3 3 3 1 1 1 1 2 1 1 1 1 2 3 3 4 4 6 7 7 11 15 13 12 13 11 10 7 5 3 3 2 1 1 1 1 2 3 4 4 5 6 7 8 9 10
6 7 10 13 15 14 12 12 13 11 8 5 6 7 9 11 12 11 9 4 4 7 10 9 5 5 2 4 1 2 4 3 4 7 4 3 3 5 4 3 3 2 2 2 2 2 0 0 1 2 1 2 3 3 4 4 5 7 7 8 6 6 15 13 12 10 9 7 5 4 3 3 1 2 2 3 4 4 5 6 7 7 9 9 9
6 8 7 3 4 5 5 5 9 12 13 12 11 10 8 9 9 9 10 9 6 9 11 9 6 12 4 4 2 2 2 12 11 5 5 6 6 6 5 5 4 3 2 4 4 2 2 1 2 2 2 2 2 3 4 4 6 8 7 7 6 7 4 16 13 11 9 8 7 5 5 4 3 3 3 3 4 5 5 6 7 7 8 8 10
5 7 7 8 7 7 8 8 7 7 7 9 12 14 15 14 14 12 13 12 11 8 10 11 9 10 9 7 2 1 9 1 4 6 5 6 8 7 6 6 6 4 4 5 3 4 3 3 3 2 3 3 2 2 3 3 4 4 5 6 6 6 5 7 11 11 10 9 7 6 6 5 4 4 4 4 5 5 5 6 6 6 7 9 10
6 5 5 6 8 11 12 10 9 9 9 9 9 8 9 9 13 13 14 11 11 9 9 10 10 13 10 4 5 7 7 4 4 7 1 6 2 6 8 7 4 5 5 6 6 5 4 5 3 5 4 5 4 3 3 3 4 4 5 6 7 7 6 4 6 9 8 8 8 8 7 5 5 5 4 5 5 5 6 6 6 7 8 9 10
7 6 6 6 6 4 5 8 11 12 12 10 10 11 12 13 12 12 13 12 9 11 13 13 8 9 11 8 1 1 3 9 8 3 3 1 5 7 8 7 6 6 8 7 6 5 5 4 5 5 5 3 4 5 4 4 4 4 8 9 10 9 7 6 4 4 6 7 7 7 7 6 6 6 6 6 6 6 6 6 7 8 11 10 10
7 7 7 6 5 5 5 5 6 8 8 9 11 11 11 11 13 15 12 11 13 14 13 10 15 14 13 10 4 1 3 1 4 10 5 4 5 5 5 9 7 9 9 9 9 9 8 7 7 6 5 5 4 3 4 4 4 4 6 11 11 12 11 9 8 6 5 5 7 6 6 6 6 7 7 7 7 7 7 7 8 10 10 10 11
5 6 5 5 5 6 6 7 7 7 9 12 14 15 17 15 13 12 13 13 13 13 10 12 12 12 10 10 6 5 2 2 0 2 7 7 8 8 9 3 5 8 11 10 8 8 8 8 7 8 7 7 6 5 5 4 5 4 5 12 13 14 13 12 11 9 8 7 6 7 7 7 7 8 8 8 8 8 8 8 10 10 9 10 11
5 5 5 4 6 5 6 7 7 6 6 7 8 8 8 9 13 15 16 16 13 13 14 11 12 11 12 12 12 6 2 3 5 6 5 6 10 7 8 10 11 14 10 10 12 9 8 7 8 8 8 7 7 7 7 7 7 5 6 11 13 14 13 13 12 12 11 9 8 7 8 8 8 8 8 8 9 9 9 10 10 10 10 10 11
4 5 6 6 6 6 7 7 7 6 5 6 9 10 11 13 13 13 13 15 13 13 12 11 10 11 11 11 14 14 15 14 14 12 11 8 6 8 6 9 13 8 9 13 10 10 8 7 9 10 8 8 7 7 7 7 7 7 10 12 12 12 13 14 14 14 12 11 10 9 8 8 8 8 8 9 9 9 10 10 11 11 11 11 12
4 4 5 6 7 6 6 6 7 6 7 6 6 6 7 10 11 12 13 14 13 11 10 11 11 10 12 11 11 12 12 10 10 10 11 12 12 11 8 5 4 9 2 3 7 9 10 11 11 10 10 10 10 9 8 8 8 13 9 12 13 13 14 14 15 14 13 12 10 9 8 8 8 8 8 9 10 10 11 12 12 12 12 12 13
6 7 6 7 7 7 7 7 7 6 6 5 5 6 5 4 6 10 14 15 14 14 13 15 15 13 15 14 12 11 12 11 7 8 9 9 8 10 4 5 7 4 5 4 5 6 9 12 11 10 10 10 9 9 10 9 8 11 12 8 14 13 14 14 15 14 13 12 11 10 9 8 8 8 9 9 10 11 12 12 12 12 13 13 14
7 8 8 7 6 7 7 7 7 7 6 6 5 5 5 6 8 9 10 11 11 15 15 16 15 15 12 10 11 10 11 10 10 7 10 10 10 12 8 3 3 5 2 4 3 4 7 11 11 10 9 10 10 9 9 10 9 13 14 9 12 15 15 14 15 14 13 12 10 9 8 8 9 9 9 10 11 11 12 12 12 13 13 14 14
7 7 5 6 7 6 6 7 6 7 6 7 6 5 5 5 6 9 10 10 11 12 13 15 15 17 16 14 12 12 12 11 10 11 8 11 12 11 8 8 5 5 6 4 5 11 11 5 11 11 12 11 10 10 10 9 10 14 16 10 8 13 15 15 15 13 12 11 10 9 8 9 9 9 9 10 11 11 11 11 12 11 12 12 13
4 4 5 6 6 7 7 7 7 7 7 7 7 6 6 7 7 8 11 8 11 13 13 13 16 17 17 15 12 12 11 11 11 11 11 10 10 8 8 11 11 11 5 8 6 12 14 10 7 14 14 13 11 10 9 10 10 16 16 9 8 8 14 16 16 14 13 11 10 9 9 9 9 9 10 10 10 10 10 10 10 10 11 12 12
5 5 5 6 6 6 7 7 7 7 7 7 7 7 7 8 9 10 11 9 10 11 11 13 13 13 12 14 14 12 11 11 10 10 10 10 10 9 10 13 12 14 8 9 12 12 6 14 10 12 16 14 12 10 9 10 9 12 9 9 9 9 12 16 16 15 13 11 9 9 10 9 9 10 10 10 10 10 10 10 9 10 11 11 12
5 5 6 6 6 6 7 7 7 7 8 7 7 8 8 8 9 10 11 10 11 10 11 12 12 11 12 12 11 11 9 10 11 11 10 11 9 9 10 10 10 13 12 13 13 10 8 8 10 6 10 14 12 11 12 12 13 14 10 10 9 9 13 16 16 14 12 10 10 10 10 9 9 10 11 11 10 10 9 9 9 9 10 11 13
6 5 6 6 6 6 7 7 7 8 7 8 7 8 8 8 9 9 9 8 9 10 10 11 11 11 12 13 11 12 10 11 10 9 10 10 11 11 11 10 10 11 13 12 13 4 7 7 9 8 8 14 12 11 10 10 12 15 11 9 9 11 14 12 14 12 10 9 9 10 10 10 10 11 11 11 10 9 9 9 8 9 10 12 13
7 7 8 8 8 8 7 8 8 7 7 7 7 7 7 8 8 9 8 8 10 10 9 9 9 10 12 14 13 12 11 11 10 10 10 10 10 10 11 11 11 10 9 9 11 14 6 6 6 8 8 9 10 11 11 8 8 17 9 9 9 10 9 6 10 10 9 9 10 12 12 11 10 11 11 11 10 9 9 8 9 9 11 12 12
4 6 6 7 7 7 7 8 8 8 8 8 7 7 8 9 9 9 7 8 10 9 9 10 10 11 12 14 13 13 12 12 11 11 10 11 10 10 10 9 11 9 10 11 13 16 3 0 2 5 6 9 9 11 11 10 9 10 8 7 8 8 7 6 5 7 8 8 11 13 12 11 10 11 11 11 10 9 8 8 8 8 9 10 11
5 7 7 7 6 7 7 8 8 8 8 9 7 7 9 9 9 8 9 9 9 10 9 11 10 10 11 12 13 12 11 12 10 11 11 10 10 11 11 12 12 13 12 12 15 14 14 3 2 3 6 8 8 8 11 11 9 9 10 8 6 6 6 5 5 4 7 9 12 13 13 11 11 11 11 9 9 8 7 7 7 7 8 8 8
5 6 7 7 7 7 8 8 8 8 9 9 7 8 9 10 10 9 9 9 11 11 11 12 12 10 11 12 13 11 10 12 12 12 10 12 11 12 14 12 14 14 12 13 12 13 14 6 4 6 6 6 6 8 9 7 7 8 9 8 7 5 4 5 4 3 7 11 14 14 13 11 11 10 9 8 7 6 5 5 5 5 6 6 7
7 7 6 7 6 7 8 8 9 9 9 8 8 8 11 11 11 11 10 10 11 11 12 13 12 11 12 12 12 12 11 13 12 11 11 11 11 12 13 12 13 15 12 11 13 12 7 7 4 6 5 7 2 6 6 5 7 6 6 5 5 6 5 4 4 4 5 12 13 12 11 11 10 9 7 6 4 3 3 3 4 4 5 6 6
7 7 6 5 6 7 8 9 10 9 10 9 9 9 10 10 11 11 11 11 11 12 12 12 12 12 12 13 12 11 11 13 12 11 11 13 13 12 13 12 12 13 10 10 11 9 7 7 5 2 5 4 4 6 8 10 7 6 5 6 6 6 5 4 3 3 5 11 12 11 11 9 7 6 4 3 2 2 1 1 2 3 5 5 5
7 6 6 5 6 8 8 10 10 9 8 8 9 10 11 10 10 10 10 11 11 11 12 12 12 11 12 13 12 11 12 14 14 13 12 14 13 13 14 13 12 11 11 10 9 10 9 8 9 6 5 7 4 6 7 8 9 7 5 5 4 4 5 4 3 3 4 4 3 5 6 6 5 4 4 3 2 1 1 1 1 3 4 5 5
7 7 6 7 7 8 10 9 9 10 9 8 9 10 11 10 10 11 11 11 11 11 11 12 11 11 12 12 12 12 14 14 14 14 14 14 13 15 15 14 13 11 11 11 10 10 10 8 5 8 9 5 8 8 5 6 6 8 8 6 3 3 2 5 5 5 5 5 6 7 5 5 6 4 4 2 2 2 1 1 2 3 4 4 4
7 7 8 8 8 7 9 8 9 8 8 8 9 10 10 11 11 11 11 12 12 12 12 12 12 12 12 12 13 13 14 14 14 14 13 14 12 14 13 12 11 11 12 11 10 10 10 9 9 9 7 10 6 4 6 8 7 2 5 7 9 7 6 5 6 7 5 4 4 3 4 5 4 4 4 3 2 3 3 3 2 3 3 3 3
6 7 6 7 8 9 8 9 9 8 9 10 9 10 11 12 11 12 12 12 12 12 12 12 12 12 12 12 13 13 14 17 19 17 16 15 12 13 12 11 12 12 11 8 8 10 9 10 8 7 9 9 9 12 9 9 11 13 11 8 7 6 6 6 3 3 4 4 3 4 4 5 5 4 4 3 1 3 2 4 3 3 2 3 3
6 6 7 7 8 9 10 9 9 9 10 9 11 17 16 12 10 11 11 12 12 12 12 12 12 12 13 12 13 17 18 19 19 20 20 20 20 16 13 12 13 12 11 11 12 12 12 12 12 12 12 12 11 12 12 12 11 7 9 9 10 7 7 4 1 2 4 5 5 6 5 4 5 3 3 3 2 2 3 3 2 4 4 3 4
7 6 7 8 8 9 10 10 10 10 10 10 15 17 19 20 14 11 12 12 11 12 12 13 13 12 12 12 12 13 15 16 16 19 20 21 21 21 21 16 14 15 13 14 14 12 12 13 11 11 12 12 12 12 13 11 9 12 12 10 9 8 10 10 9 3 5 8 7 5 5 5 4 5 3 4 3 3 3 3 5 4 2 3 4
7 5 7 9 9 8 8 9 10 11 11 13 16 18 18 19 17 13 12 12 12 12 12 13 13 12 12 11 11 11 11 13 12 13 16 20 21 20 19 17 17 20 19 17 15 12 11 10 10 13 13 14 13 12 10 9 9 7 7 9 10 11 10 10 8 8 5 10 7 6 6 3 4 4 4 4 4 4 4 6 5 3 3 3 4
5 6 8 7 9 8 8 10 11 11 11 14 16 18 17 19 19 17 12 13 12 13 13 13 13 12 11 11 12 11 10 15 14 12 11 12 15 17 17 18 18 21 22 20 17 15 15 13 14 14 16 14 15 13 12 13 11 12 10 9 9 9 9 9 8 5 5 9 7 5 5 4 5 5 5 3 4 3 3 5 3 2 3 4 3
6 8 8 9 9 8 8 10 11 11 12 13 15 17 17 19 19 17 13 13 13 14 14 13 12 12 12 12 12 12 10 9 10 11 10 10 9 10 12 12 12 15 20 22 19 14 13 15 16 17 12 10 12 12 12 12 14 13 12 11 10 10 11 10 6 6 6 8 8 6 2 3 5 5 5 4 4 3 3 4 4 3 4 3 1
7 9 9 9 9 8 9 9 10 13 12 14 15 17 17 18 19 17 13 12 12 14 13 13 13 13 12 12 12 13 11 10 9 11 11 10 10 11 12 13 12 12 12 13 13 12 13 11 12 11 11 10 11 13 13 13 15 14 15 15 16 12 7 8 6 6 5 5 5 6 6 2 4 5 5 4 3 3 2 3 4 4 4 4 4
6 7 8 7 10 11 10 9 10 14 14 13 15 17 17 18 19 12 11 12 13 13 14 13 12 12 12 12 12 12 11 11 11 16 15 10 10 12 13 12 11 10 11 11 13 11 11 11 11 12 12 12 10 11 13 13 10 7 8 7 7 8 9 8 7 5 5 5 6 6 3 3 3 6 3 2 3 4 1 1 3 5 5 6 3
7 8 8 8 8 9 10 9 11 13 14 12 14 17 16 18 14 11 11 11 12 13 14 12 12 12 12 12 11 12 11 11 11 16 18 15 11 13 12 12 10 9 8 7 13 15 14 11 10 10 12 16 17 18 19 19 13 12 10 10 9 10 10 9 6 6 7 6 5 6 5 4 4 4 3 1 1 2 1 0 1 5 8 7 2
12 10 8 10 9 7 9 11 10 12 15 12 12 15 16 17 15 11 10 10 13 13 13 12 11 11 12 16 14 12 11 10 12 17 18 16 12 12 12 11 11 10 8 7 7 8 13 14 15 16 18 18 19 21 22 23 22 17 14 15 13 11 10 10 9 7 4 5 6 7 6 4 4 3 4 1 1 2 1 1 1 3 6 4 3
10 10 9 9 11 10 8 10 13 13 14 15 13 14 16 16 14 10 10 10 13 13 11 12 11 10 11 11 16 14 12 12 17 17 20 17 12 12 12 12 13 13 12 12 12 11 10 10 9 11 11 15 13 12 15 25 23 16 10 9 12 12 11 9 8 7 3 4 6 8 7 3 7 2 6 2 1 3 0 1 2 3 2 2 2
Wind_Direction
164 166 155 166 158 154 142 136 137 139 136 135 138 135 126 126 123 119 110 107 100 98 94 78 70 67 91 104 108 109 96 64 355 21 12 342 345 92 129 130 128 130 126 129 134 139 136 128 131 129 130 128 127 125 123 123 121 119 116 114 113 108 106 104 102 95 94 94 92 91 88 84 82 79 77 74 71 69 66 63 60 58 55 53 50
165 160 164 167 165 155 146 146 147 150 147 148 158 142 140 132 127 127 124 121 113 114 108 100 82 72 86 103 93 99 113 114 84 62 338 357 352 351 6 131 129 130 137 141 137 140 136 133 138 133 133 131 132 131 131 130 129 125 122 121 117 114 109 102 101 103 100 96 92 89 89 87 84 80 77 74 71 68 65 61 57 55 51 47 44
165 164 167 162 165 167 165 148 148 164 157 148 150 149 144 145 149 145 140 131 124 124 119 110 97 77 67 107 112 99 15 70 112 107 70 15 360 347 353 9 149 143 148 147 141 138 142 141 142 141 140 139 138 137 137 136 133 129 127 125 123 118 114 113 110 108 106 102 97 92 84 84 83 83 78 74 70 67 64 60 55 50 51 44 35
171 169 170 168 173 177 169 167 171 166 164 152 149 145 143 133 121 120 123 122 121 113 116 125 117 111 101 69 113 110 94 88 108 109 108 85 16 344 353 357 44 139 144 144 147 147 150 148 148 146 148 147 146 143 142 141 138 135 133 132 129 126 124 123 117 111 107 104 101 96 90 85 78 72 79 76 70 66 63 59 57 51 46 41 34
179 176 176 176 174 175 179 187 174 167 159 155 143 141 134 129 115 113 113 115 117 111 98 85 126 131 120 109 110 100 92 95 90 94 77 80 40 358 350 3 9 39 101 156 150 153 154 153 155 157 158 153 150 148 149 150 146 145 141 139 135 131 124 120 114 116 113 108 104 101 97 92 89 79 61 69 70 65 53 52 55 49 43 37 28
183 178 174 177 179 183 185 187 178 169 156 156 157 157 151 149 146 141 141 142 143 142 135 120 74 64 72 44 45 58 75 83 76 62 111 76 78 47 2 3 14 29 23 31 152 160 158 163 161 164 162 158 159 156 157 155 156 153 151 147 143 137 131 125 126 122 116 111 103 96 91 85 76 71 62 56 61 63 51 40 45 42 36 30 26
187 188 180 175 181 186 187 190 174 171 169 171 164 165 161 165 161 149 147 146 152 158 151 139 135 105 76 57 40 4 21 61 39 81 76 84 89 76 48 22 10 25 22 11 22 17 173 169 168 166 167 167 165 162 153 157 163 162 159 155 151 148 143 135 129 129 123 114 113 101 91 92 85 71 60 53 51 53 54 31 31 34 26 26 18
184 185 196 190 180 186 194 184 175 171 174 171 164 169 167 160 183 164 152 155 144 134 116 137 131 120 90 82 65 27 6 14 53 52 346 354 71 76 57 34 24 15 17 19 12 10 16 173 177 177 174 170 174 157 163 167 171 168 168 165 161 157 150 139 142 138 127 124 112 101 88 79 81 75 60 54 42 31 41 36 27 27 23 15 9
194 195 191 187 186 186 181 181 169 166 160 170 172 167 167 161 168 223 179 152 157 145 136 145 139 127 117 99 65 36 28 349 343 345 331 90 73 77 69 47 26 29 19 19 4 17 13 29 56 163 182 181 178 177 175 175 173 174 175 174 172 164 154 155 155 147 137 131 121 113 98 84 73 58 46 49 39 20 22 36 29 18 16 12 10
193 192 197 204 208 208 193 177 174 177 178 176 184 175 172 165 163 189 187 151 156 156 151 118 58 78 95 95 73 80 41 354 348 346 335 333 65 85 79 98 66 55 58 39 25 13 24 18 44 65 97 183 184 181 184 182 180 180 181 181 180 170 164 165 166 157 156 144 138 113 97 80 69 62 48 30 36 18 3 25 11 13 11 10 7
186 185 201 205 201 194 192 190 183 182 178 179 174 172 174 181 172 161 148 166 159 153 140 129 111 85 46 27 71 80 101 78 19 348 337 319 315 55 7 37 33 64 71 88 68 55 50 20 25 43 57 59 185 193 194 190 182 188 184 188 179 181 179 178 175 172 173 167 141 129 110 88 63 58 47 21 24 1 5 7 359 0 8 8 0
197 188 185 187 194 203 196 177 177 168 170 182 186 183 181 176 182 162 145 113 95 126 133 127 95 61 42 41 24 16 59 74 27 296 284 280 288 266 167 175 128 359 8 28 76 85 74 49 39 47 46 77 70 66 78 92 184 188 196 186 187 184 183 190 183 187 189 181 168 146 128 100 85 23 45 5 357 358 352 354 353 354 359 2 358
221 217 207 190 185 178 174 184 189 191 187 193 193 184 172 163 153 156 149 136 127 144 145 132 127 77 0 25 351 11 3 353 303 268 259 282 289 278 294 184 161 160 210 309 58 70 108 89 62 42 72 91 78 83 79 81 77 206 201 198 186 187 185 192 192 193 195 197 205 172 152 156 106 334 340 356 329 343 343 344 346 349 354 354 348
196 188 185 191 199 195 188 186 185 196 207 204 185 176 166 162 155 151 182 158 160 168 167 135 171 178 166 209 326 301 229 246 257 256 231 275 288 278 256 217 213 190 172 182 116 93 97 80 103 98 132 114 114 106 96 83 85 92 172 172 184 190 196 187 202 193 190 205 213 217 204 204 221 305 309 318 323 329 339 337 342 345 348 346 351
216 217 196 188 190 192 194 187 184 182 182 186 185 183 181 174 174 169 163 176 138 174 181 202 145 104 48 71 276 240 269 264 233 245 228 219 251 267 268 269 249 220 250 271 222 194 135 71 167 176 169 164 149 144 132 124 113 102 97 97 111 198 195 193 200 199 201 199 210 229 229 222 241 274 299 309 315 324 332 333 335 344 342 351 348
214 202 207 226 211 200 204 211 202 188 183 179 176 182 178 180 185 190 173 161 180 194 193 196 150 137 164 192 188 141 321 238 217 219 187 205 214 238 242 248 248 239 230 240 227 206 228 278 230 214 195 203 193 172 151 140 123 116 106 93 87 71 210 192 196 198 211 210 215 224 235 235 245 255 284 300 312 317 327 327 331 335 342 336 333
216 212 209 198 190 186 187 184 193 210 208 196 187 188 186 186 184 182 187 183 183 187 198 201 199 202 140 123 78 245 227 256 123 238 170 212 226 220 233 243 241 238 236 240 223 224 218 239 240 240 224 215 216 201 171 152 139 136 115 106 99 88 58 175 193 198 204 216 218 223 232 240 240 258 275 292 301 313 314 319 321 324 320 322 327
214 216 221 239 224 198 187 181 187 191 195 199 195 179 188 191 193 192 195 203 190 174 196 213 209 211 215 216 167 188 180 195 117 259 25 231 231 212 229 233 234 242 240 235 227 228 212 229 220 229 219 210 202 202 195 185 162 146 141 146 131 121 107 108 170 185 202 209 217 225 233 233 240 252 264 277 286 295 305 304 306 304 298 313 321
223 217 220 221 228 245 240 207 191 185 183 189 191 190 190 194 190 199 203 194 171 190 195 198 204 233 229 229 148 309 162 135 206 73 282 215 217 227 230 224 221 228 234 231 226 225 226 225 235 236 242 236 214 200 195 201 182 168 162 163 154 148 151 146 133 157 202 212 214 225 233 237 244 248 255 266 273 279 286 292 294 293 296 315 316
226 229 228 228 229 225 206 211 204 189 181 193 199 200 197 197 195 201 198 194 195 200 200 188 188 214 209 217 229 10 251 47 150 180 162 170 236 232 247 225 213 228 224 225 219 212 209 209 215 222 222 225 240 239 220 204 191 184 174 177 173 171 172 173 172 172 186 204 221 229 234 244 248 250 254 257 263 268 271 273 280 284 304 306 310
231 234 230 233 236 238 239 227 215 222 208 201 199 195 193 191 194 199 201 202 206 212 203 200 203 213 173 218 203 215 261 267 300 180 189 203 237 185 217 182 226 243 231 217 220 212 216 218 214 213 209 208 202 214 222 219 208 201 201 190 186 184 183 182 181 184 196 210 223 233 241 246 248 251 253 253 258 264 265 265 268 284 298 302 307
224 228 235 231 232 230 236 245 240 215 199 220 214 209 211 210 200 199 202 203 206 209 212 206 208 212 196 196 192 175 192 260 257 218 256 222 231 200 204 186 209 232 213 216 215 209 211 215 218 218 215 213 204 200 201 204 201 199 213 205 196 193 191 191 189 190 196 200 210 225 239 247 252 257 263 265 264 262 262 266 278 287 290 297 303
213 221 220 224 230 228 230 236 239 234 222 215 211 210 203 198 199 205 213 211 208 209 217 216 211 212 206 201 200 190 193 199 209 207 203 205 233 239 212 201 213 234 217 211 205 206 207 210 219 220 209 212 214 203 203 208 200 201 204 210 203 198 198 198 198 197 197 203 208 217 229 242 254 264 268 270 270 272 272 271 275 283 289 293 297
228 229 221 221 222 227 227 232 238 242 240 224 234 236 224 206 199 198 206 212 213 210 214 219 212 213 218 212 210 208 217 220 221 202 200 217 210 229 212 183 249 236 29 187 199 207 210 216 219 216 211 209 207 198 195 195 204 202 198 212 207 201 201 201 200 196 200 204 210 220 228 239 251 258 268 274 276 275 277 277 279 281 287 291 297
224 223 228 219 218 223 222 224 226 226 232 229 231 217 207 222 230 210 202 202 207 204 206 213 212 208 214 216 215 213 218 226 224 195 211 222 218 239 237 164 208 210 193 143 207 214 212 222 217 217 214 215 211 200 196 193 194 198 193 212 210 206 205 204 202 200 201 205 214 221 229 241 252 260 267 272 276 280 281 281 282 285 288 292 296
215 219 218 218 221 227 227 231 232 234 228 232 227 222 223 217 207 214 222 223 216 210 211 213 215 219 219 221 221 221 222 219 222 199 199 197 214 217 207 212 231 235 84 203 172 181 234 222 213 212 213 216 214 206 205 197 190 194 191 190 211 207 206 206 209 205 203 205 210 220 231 242 253 260 267 271 274 279 283 284 286 288 288 292 297
214 221 208 209 220 224 230 235 237 237 235 234 229 227 228 228 224 226 222 216 217 215 217 214 215 216 216 219 221 220 221 216 213 219 204 206 212 212 188 204 246 233 243 209 225 212 224 197 202 209 210 210 209 208 206 204 194 186 192 189 200 207 202 205 203 199 198 202 211 221 231 240 251 260 265 270 277 282 287 288 291 294 300 305 305
221 207 216 207 214 220 223 228 231 236 238 239 239 236 229 232 234 228 230 217 220 214 218 219 224 222 220 220 221 224 221 221 217 218 215 217 219 217 202 216 220 247 204 243 214 247 212 210 195 209 204 204 205 206 205 197 199 190 188 186 188 200 205 202 203 202 201 204 211 222 233 244 250 256 261 267 273 278 283 290 294 296 296 294 295
223 210 217 213 216 217 224 228 227 229 234 235 236 236 233 234 233 229 231 220 221 222 219 219 222 222 224 221 223 225 222 221 221 219 220 218 221 213 200 208 210 235 225 231 229 234 227 208 205 213 203 198 199 195 191 206 205 188 186 186 186 188 202 201 202 203 199 201 212 225 237 246 254 259 263 265 268 273 277 277 279 285 290 294 296
213 216 214 218 218 219 225 228 226 225 228 230 231 230 229 235 237 238 233 217 218 219 221 222 224 222 227 228 225 232 223 221 218 214 210 210 207 211 214 221 221 225 232 236 249 189 229 211 216 208 190 202 198 192 192 197 194 187 188 187 186 185 194 200 203 201 199 205 218 232 241 249 257 260 262 263 265 269 272 276 280 284 288 289 292
216 218 219 221 219 223 222 230 227 227 225 228 224 228 226 236 237 242 235 229 228 225 220 218 222 219 223 227 224 230 222 228 221 213 212 203 211 211 219 219 227 230 238 242 259 228 180 207 222 216 189 204 196 194 192 193 186 187 184 185 186 182 184 197 199 198 194 205 226 240 248 255 258 260 262 266 270 273 274 276 280 283 285 287 293
211 208 210 212 212 217 217 223 228 228 229 228 223 226 230 236 239 242 240 232 234 232 230 222 223 220 224 228 224 225 221 225 220 219 216 215 214 214 213 216 223 225 234 247 246 254 185 214 201 201 177 185 189 192 193 190 184 185 180 182 178 168 182 186 191 183 187 207 232 245 251 255 260 267 270 272 274 273 275 280 282 284 287 296 302
223 231 229 225 222 220 220 223 223 224 224 226 219 222 228 237 237 240 242 233 238 242 236 235 226 225 226 229 227 226 220 223 219 218 216 215 212 216 213 214 223 219 215 226 235 250 239 290 172 179 160 157 187 193 188 185 177 180 167 173 166 174 174 177 173 173 184 212 236 248 253 255 261 267 268 269 270 274 277 280 285 295 308 305 303
210 232 232 230 225 221 223 227 225 225 227 227 220 216 226 233 238 235 241 238 241 244 237 241 232 229 231 233 234 230 224 229 222 221 215 216 210 214 215 211 219 221 213 212 232 236 242 112 185 106 143 171 176 186 188 178 181 170 170 163 164 169 172 163 158 160 186 217 235 243 246 249 255 259 263 267 273 280 288 298 306 307 307 317 322
236 233 237 232 225 223 227 230 230 227 224 226 219 214 226 230 234 236 235 236 239 241 240 241 238 233 233 232 235 229 226 228 224 223 214 216 212 216 220 213 221 224 215 216 227 237 238 221 141 148 155 169 171 176 183 184 172 170 166 168 162 153 149 155 158 147 197 219 231 237 239 243 248 255 262 269 278 285 295 306 314 321 320 323 342
248 243 235 238 231 227 232 234 233 232 229 225 221 219 227 227 230 233 233 236 238 239 241 243 239 234 234 235 235 230 228 229 226 222 220 217 215 218 222 218 220 224 219 214 219 230 231 176 187 170 162 156 113 145 147 135 152 165 172 144 134 149 148 154 158 163 204 222 229 232 236 238 244 253 260 268 272 282 301 312 322 341 12 24 23
252 254 252 238 242 238 238 238 239 235 232 226 224 227 231 231 232 231 232 235 238 239 240 241 239 236 235 234 236 228 228 232 231 226 222 218 218 218 221 220 219 223 218 212 215 213 200 186 146 141 135 109 98 133 153 154 149 132 127 143 140 136 120 133 144 181 209 222 224 227 229 232 239 241 243 242 240 260 297 337 23 38 34 29 16
258 255 255 248 235 243 241 244 243 245 239 230 229 233 235 235 235 234 233 234 238 240 241 239 238 235 236 236 234 227 228 227 230 226 223 223 219 220 222 221 219 216 216 215 205 205 200 183 157 132 172 150 122 145 168 158 143 127 106 85 82 97 128 125 163 182 188 196 206 221 224 225 214 214 206 186 209 217 161 65 54 43 43 27 5
257 260 253 252 243 240 245 244 245 244 242 233 232 234 238 238 238 238 237 234 237 240 242 241 239 238 236 236 234 228 229 228 229 227 223 224 219 222 220 221 218 210 213 211 201 199 194 168 164 160 152 167 155 151 152 152 154 150 141 126 138 151 136 159 182 187 181 197 210 202 192 193 204 192 184 160 173 189 188 135 67 49 39 13 342
253 251 254 254 253 241 248 247 248 245 245 242 238 239 239 239 237 240 238 240 239 237 239 239 239 239 238 236 235 232 230 231 228 231 222 226 219 226 222 216 215 209 213 206 198 192 189 180 171 167 168 158 124 83 126 144 135 97 174 165 172 175 178 179 189 167 175 168 161 190 208 197 177 167 143 126 174 213 167 101 72 56 21 331 297
256 257 257 254 259 258 254 248 251 243 242 242 238 236 240 241 238 243 242 241 240 243 243 241 239 238 240 238 238 237 233 233 230 228 226 222 218 224 223 207 213 208 210 193 189 192 194 184 177 162 163 171 162 148 162 168 173 182 181 168 174 163 154 149 178 167 159 148 165 163 198 190 177 177 150 147 199 144 108 114 98 60 299 267 301
264 260 260 255 253 256 259 256 250 246 245 244 239 237 235 239 240 243 245 244 243 243 245 247 245 240 240 239 240 238 237 235 233 232 231 229 226 224 223 204 207 204 199 192 194 198 192 189 185 174 173 177 172 171 168 186 180 122 137 166 170 157 133 151 121 185 175 155 160 189 204 195 173 175 141 181 171 154 134 110 157 201 235 288 314
266 264 256 261 254 252 254 257 257 250 247 243 241 241 241 241 242 247 246 249 244 244 244 244 248 244 241 239 241 239 237 239 237 235 234 233 232 230 228 218 206 198 196 198 204 193 194 196 182 180 179 171 177 177 186 174 165 171 172 169 161 147 170 171 193 153 186 169 186 178 198 190 171 189 182 183 169 148 149 171 208 233 269 303 315
268 258 258 254 258 255 256 256 255 254 252 247 244 245 244 244 241 243 248 251 250 247 245 244 247 245 243 241 238 235 233 230 230 233 234 235 234 233 230 223 215 212 207 198 195 193 194 184 180 188 178 182 177 181 176 165 167 151 156 163 171 175 173 185 187 187 175 166 166 172 193 168 168 183 191 191 176 171 171 194 218 261 298 310 320
278 267 262 263 260 256 252 258 258 256 256 251 248 249 247 245 243 241 248 247 250 251 247 246 246 246 244 244 246 237 236 227 227 228 229 232 234 231 228 223 220 216 218 218 208 198 183 183 182 189 192 180 178 184 177 173 162 163 159 170 179 182 183 184 185 141 165 166 148 162 185 187 162 181 194 183 171 162 196 212 231 286 293 310 308
275 276 272 265 267 262 255 255 262 262 257 256 249 249 248 247 245 242 246 247 248 251 250 248 248 246 242 242 246 246 236 225 222 221 222 224 217 213 220 218 217 215 215 212 209 207 197 189 185 191 192 174 176 174 179 160 161 170 170 182 176 176 185 186 155 143 144 165 165 142 161 195 169 162 187 183 156 175 181 206 228 271 299 290 229
279 276 278 279 271 263 261 257 261 266 260 255 252 249 248 247 247 244 247 248 250 252 251 248 246 246 243 242 243 247 242 227 218 208 215 213 209 212 214 216 213 210 205 202 199 193 192 191 190 183 176 185 183 177 169 171 178 179 179 178 177 173 135 92 83 95 113 163 145 143 195 172 165 156 181 156 155 188 164 246 273 292 265 210 136
268 265 271 258 266 269 262 259 262 266 267 256 252 251 248 249 248 247 246 246 250 252 253 249 247 245 244 241 244 244 242 237 218 211 214 206 208 213 213 212 208 203 205 203 195 184 179 177 181 184 187 183 165 161 167 170 165 137 110 90 105 124 134 143 156 148 152 174 174 157 140 177 178 155 152 99 123 194 160 69 303 257 216 167 122
285 280 272 268 264 266 269 259 258 268 273 262 250 252 248 248 248 248 246 247 250 251 252 250 247 246 240 237 236 243 239 238 221 216 213 201 212 211 210 205 200 196 198 182 180 174 181 178 170 173 164 166 163 164 167 166 158 147 132 136 161 153 148 162 155 157 187 152 194 167 137 156 170 141 122 76 183 230 228 77 311 245 190 143 97
305 299 293 292 282 264 267 271 258 267 276 270 252 254 248 246 241 247 248 249 253 251 255 252 248 247 241 233 231 234 237 233 223 216 207 198 209 208 202 194 190 193 187 169 157 163 164 165 164 164 165 169 168 168 170 170 162 156 160 173 170 156 168 170 168 172 130 168 183 155 127 190 132 117 111 341 20 329 351 248 157 64 103 83 22
289 295 296 291 292 284 266 267 271 265 272 278 266 258 255 248 244 246 249 250 255 254 253 256 249 244 243 232 226 225 226 230 227 213 204 199 205 201 194 189 195 195 189 169 168 164 164 160 159 156 162 169 167 163 170 173 168 172 182 155 150 165 165 169 142 116 123 234 193 167 148 182 134 184 122 104 292 279 236 270 153 140 110 100 56